Torna al catalogo

STARLINK-35305

AttivoComunicazioniVLEO
NORAD 66561·PAYLOAD·🇺🇸 United States

Lanciato Nov 21, 2025 da Cape Canaveral Space Force Station

Loading…

Prossimi Passaggi (prossime 24 ore)

TLE

AggiornatoSource: CelesTrak SupGP

Epoca: Sep 15, 2026, 03:59 UTC

1 66561C 25268E   26258.16645833  .00043066  00000+0  15604-2 0  2580
2 66561  43.0036 356.9496 0001438 268.4952 260.8365 15.27545765    14

Traccia STARLINK-35305 in tempo reale con AllMySat

Download on the App Store